Location: Newark
(48.2308°N, 120.8549°W)
Time: 14:13:26
(UTC+00:00)

Transit 2A Rocket - Pass Details

Date: 29 May 2020
Orbit: 584 x 919 km, 66.7° (Epoch: 07 July)

Event Time Altitude Azimuth Distance (km) Brightness Sun altitude
Rises 05:12:50 0° 151° (SSE) 3,053 - -10.6°
Reaches altitude 10° 05:16:53 10° 117° (ESE) 2,234 - -11.0°
Exits shadow 05:17:24 11° 111° (ESE) 2,198 6.9 -11.1°
Maximum altitude 05:18:22 11° 100° (E) 2,186 6.9 -11.2°
Drops below altitude 10° 05:19:52 10° 83° (E) 2,305 7.2 -11.3°
Sets 05:24:16 0° 51° (NE) 3,337 8.3 -11.8°
